Time,TemperatureF,DewpointF,PressureIn,WindDirection,WindDirectionDegrees,WindSpeedMPH,WindSpeedGustMPH,Humidity,HourlyPrecipIn,Conditions,Clouds,dailyrainin,SoftwareType,DateUTC
2013-05-28 00:01:00,74.3,69.2,30.09,SE,143,5.0,6.0,84,0.00,,---,0.01,VWS V14.00,2013-05-28 10:01:00,
2013-05-28 00:06:00,74.4,69.3,30.09,ESE,107,1.0,7.0,84,0.00,,---,0.00,VWS V14.00,2013-05-28 10:06:00,
2013-05-28 00:11:00,74.6,69.4,30.09,ESE,113,0.0,7.0,84,0.00,,---,0.00,VWS V14.00,2013-05-28 10:11:00,
2013-05-28 00:16:00,74.6,69.4,30.09,ESE,113,0.0,7.0,84,0.00,,---,0.00,VWS V14.00,2013-05-28 10:16:00,
2013-05-28 00:21:00,74.7,69.6,30.09,ESE,113,0.0,7.0,84,0.00,,---,0.00,VWS V14.00,2013-05-28 10:21:00,
2013-05-28 00:26:00,74.8,69.7,30.09,ESE,113,0.0,7.0,84,0.00,,---,0.00,VWS V14.00,2013-05-28 10:26:00,
2013-05-28 00:31:00,74.7,69.2,30.09,NE,56,0.0,10.0,83,0.00,,---,0.00,VWS V14.00,2013-05-28 10:31:00,
2013-05-28 00:36:00,74.8,69.3,30.08,ESE,107,0.0,6.0,83,0.00,,---,0.00,VWS V14.00,2013-05-28 10:36:00,
2013-05-28 00:41:00,74.8,69.3,30.08,East,86,3.0,7.0,83,0.00,,---,0.00,VWS V14.00,2013-05-28 10:41:00,
2013-05-28 00:46:00,74.9,69.4,30.08,East,94,1.0,7.0,83,0.00,,---,0.00,VWS V14.00,2013-05-28 10:46:00,
2013-05-28 00:51:00,74.9,69.4,30.08,ESE,118,1.0,8.0,83,0.00,,---,0.00,VWS V14.00,2013-05-28 10:51:00,
2013-05-28 00:56:00,74.8,68.6,30.08,SE,141,2.0,10.0,81,0.00,,---,0.00,VWS V14.00,2013-05-28 10:56:00,
2013-05-28 01:01:00,74.8,68.2,30.07,SE,144,6.0,13.0,80,0.00,,---,0.00,VWS V14.00,2013-05-28 11:01:00,
2013-05-28 01:06:00,75.1,68.5,30.08,SE,144,2.0,11.0,80,0.00,,---,0.00,VWS V14.00,2013-05-28 11:06:00,
2013-05-28 01:11:00,75.3,68.7,30.07,SE,142,4.0,11.0,80,0.00,,---,0.00,VWS V14.00,2013-05-28 11:11:00,
2013-05-28 01:15:00,75.4,69.2,30.07,SE,138,0.0,11.0,81,0.00,,---,0.00,VWS V14.00,2013-05-28 11:15:00,
2013-05-28 01:20:00,75.4,68.8,30.07,NE,51,3.0,11.0,80,0.00,,---,0.00,VWS V14.00,2013-05-28 11:20:00,
2013-05-28 01:25:00,75.5,69.3,30.06,NE,52,0.0,11.0,81,0.00,,---,0.00,VWS V14.00,2013-05-28 11:25:00,
2013-05-28 01:30:00,75.5,69.3,30.06,NE,51,2.0,11.0,81,0.00,,---,0.00,VWS V14.00,2013-05-28 11:30:00,
2013-05-28 01:35:00,75.5,69.3,30.06,NE,51,2.0,10.0,81,0.00,,---,0.00,VWS V14.00,2013-05-28 11:35:00,
2013-05-28 01:40:00,75.5,69.6,30.06,NE,36,3.0,10.0,82,0.00,,---,0.00,VWS V14.00,2013-05-28 11:40:00,
2013-05-28 01:45:00,75.5,69.6,30.05,NE,50,1.0,10.0,82,0.00,,---,0.00,VWS V14.00,2013-05-28 11:45:00,
2013-05-28 01:50:00,75.5,69.6,30.05,ESE,114,2.0,14.0,82,0.00,,---,0.00,VWS V14.00,2013-05-28 11:50:00,
2013-05-28 01:55:00,75.5,69.6,30.05,North,360,4.0,14.0,82,0.00,,---,0.00,VWS V14.00,2013-05-28 11:55:00,
2013-05-28 02:00:00,75.4,69.5,30.05,ENE,71,8.0,14.0,82,0.00,,---,0.00,VWS V14.00,2013-05-28 12:00:00,
2013-05-28 02:05:00,75.4,69.5,30.05,SE,129,5.0,17.0,82,0.00,,---,0.00,VWS V14.00,2013-05-28 12:05:00,
2013-05-28 02:10:00,75.4,69.5,30.04,SE,138,4.0,17.0,82,0.00,,---,0.00,VWS V14.00,2013-05-28 12:10:00,
2013-05-28 02:15:00,75.4,69.2,30.04,SE,132,2.0,17.0,81,0.00,,---,0.00,VWS V14.00,2013-05-28 12:15:00,
2013-05-28 02:20:00,75.4,69.2,30.04,ESE,109,4.0,17.0,81,0.00,,---,0.00,VWS V14.00,2013-05-28 12:20:00,
2013-05-28 02:25:00,75.4,69.2,30.04,SE,129,1.0,17.0,81,0.00,,---,0.00,VWS V14.00,2013-05-28 12:25:00,
2013-05-28 02:30:00,75.5,69.6,30.04,East,101,4.0,17.0,82,0.00,,---,0.00,VWS V14.00,2013-05-28 12:30:00,
2013-05-28 02:35:00,75.4,69.2,30.04,SE,134,8.0,13.0,81,0.00,,---,0.00,VWS V14.00,2013-05-28 12:35:00,
2013-05-28 02:40:00,75.2,68.6,30.04,East,98,6.0,13.0,80,0.00,,---,0.00,VWS V14.00,2013-05-28 12:40:00,
2013-05-28 02:45:00,75.2,68.6,30.04,NE,55,3.0,13.0,80,0.00,,---,0.00,VWS V14.00,2013-05-28 12:45:00,
2013-05-28 02:50:00,75.1,68.5,30.04,ENE,70,5.0,16.0,80,0.00,,---,0.00,VWS V14.00,2013-05-28 12:50:00,
2013-05-28 02:55:00,75.2,68.6,30.04,East,91,6.0,16.0,80,0.00,,---,0.00,VWS V14.00,2013-05-28 12:55:00,
2013-05-28 03:00:00,75.3,68.7,30.04,East,94,6.0,16.0,80,0.00,,---,0.00,VWS V14.00,2013-05-28 13:00:00,
2013-05-28 03:05:00,75.3,68.3,30.04,SE,127,8.0,13.0,79,0.00,,---,0.00,VWS V14.00,2013-05-28 13:05:00,
2013-05-28 03:10:00,75.3,68.7,30.04,ENE,74,3.0,13.0,80,0.00,,---,0.00,VWS V14.00,2013-05-28 13:10:00,
2013-05-28 03:15:00,75.3,68.7,30.04,East,87,1.0,13.0,80,0.00,,---,0.00,VWS V14.00,2013-05-28 13:15:00,
2013-05-28 03:20:00,75.3,68.7,30.04,ESE,114,6.0,13.0,80,0.00,,---,0.00,VWS V14.00,2013-05-28 13:20:00,
2013-05-28 03:25:00,75.4,68.8,30.03,SE,136,5.0,14.0,80,0.00,,---,0.00,VWS V14.00,2013-05-28 13:25:00,
2013-05-28 03:30:00,75.4,68.8,30.03,East,92,5.0,14.0,80,0.00,,---,0.00,VWS V14.00,2013-05-28 13:30:00,
2013-05-28 03:35:00,75.4,68.8,30.03,ESE,103,2.0,12.0,80,0.00,,---,0.00,VWS V14.00,2013-05-28 13:35:00,
2013-05-28 03:40:00,75.5,69.3,30.03,ENE,61,3.0,14.0,81,0.00,,---,0.00,VWS V14.00,2013-05-28 13:40:00,
2013-05-28 03:45:00,75.5,68.9,30.03,SE,128,7.0,14.0,80,0.00,,---,0.00,VWS V14.00,2013-05-28 13:45:00,
2013-05-28 03:50:00,75.5,68.9,30.03,SE,128,4.0,14.0,80,0.00,,---,0.00,VWS V14.00,2013-05-28 13:50:00,
2013-05-28 03:55:00,75.4,68.8,30.03,SSE,150,4.0,14.0,80,0.00,,---,0.00,VWS V14.00,2013-05-28 13:55:00,
2013-05-28 04:00:00,75.3,68.3,30.03,ESE,121,1.0,14.0,79,0.00,,---,0.00,VWS V14.00,2013-05-28 14:00:00,
2013-05-28 04:05:00,75.2,68.2,30.03,SE,131,4.0,11.0,79,0.00,,---,0.00,VWS V14.00,2013-05-28 14:05:00,
2013-05-28 04:10:00,75.3,68.3,30.03,East,82,3.0,12.0,79,0.00,,---,0.00,VWS V14.00,2013-05-28 14:10:00,
2013-05-28 04:15:00,75.3,68.7,30.03,SSE,148,4.0,12.0,80,0.00,,---,0.00,VWS V14.00,2013-05-28 14:15:00,
2013-05-28 04:20:00,75.4,68.8,30.03,NE,44,3.0,12.0,80,0.00,,---,0.00,VWS V14.00,2013-05-28 14:20:00,
2013-05-28 04:25:00,75.4,68.8,30.03,East,101,6.0,17.0,80,0.00,,---,0.00,VWS V14.00,2013-05-28 14:25:00,
2013-05-28 04:30:00,75.4,68.8,30.03,ENE,72,2.0,17.0,80,0.00,,---,0.00,VWS V14.00,2013-05-28 14:30:00,
2013-05-28 04:35:00,75.5,69.3,30.04,ENE,73,1.0,10.0,81,0.00,,---,0.00,VWS V14.00,2013-05-28 14:35:00,
2013-05-28 04:40:00,75.5,69.3,30.03,SE,126,0.0,12.0,81,0.00,,---,0.00,VWS V14.00,2013-05-28 14:40:00,
2013-05-28 04:45:00,75.5,69.6,30.03,SE,140,2.0,12.0,82,0.00,,---,0.00,VWS V14.00,2013-05-28 14:45:00,
2013-05-28 04:50:00,75.5,69.3,30.04,SE,128,6.0,15.0,81,0.00,,---,0.00,VWS V14.00,2013-05-28 14:50:00,
2013-05-28 04:55:00,75.4,69.5,30.04,ESE,115,2.0,15.0,82,0.00,,---,0.00,VWS V14.00,2013-05-28 14:55:00,
2013-05-28 05:00:00,75.3,69.1,30.04,SE,136,14.0,15.0,81,0.00,,---,0.00,VWS V14.00,2013-05-28 15:00:00,
2013-05-28 05:05:00,75.3,69.1,30.04,ESE,111,5.0,7.0,81,0.00,,---,0.00,VWS V14.00,2013-05-28 15:05:00,
2013-05-28 05:10:00,75.3,69.1,30.04,ESE,106,5.0,12.0,81,0.00,,---,0.00,VWS V14.00,2013-05-28 15:10:00,
2013-05-28 05:15:00,75.3,69.4,30.04,East,83,2.0,16.0,82,0.00,,---,0.00,VWS V14.00,2013-05-28 15:15:00,
2013-05-28 05:20:00,75.3,69.4,30.04,East,93,5.0,16.0,82,0.00,,---,0.00,VWS V14.00,2013-05-28 15:20:00,
2013-05-28 05:25:00,75.3,69.4,30.04,ENE,67,8.0,16.0,82,0.00,,---,0.00,VWS V14.00,2013-05-28 15:25:00,
2013-05-28 05:30:00,75.2,69.3,30.04,SSE,155,4.0,16.0,82,0.00,,---,0.00,VWS V14.00,2013-05-28 15:30:00,
2013-05-28 05:35:00,75.1,69.2,30.04,ENE,76,2.0,10.0,82,0.00,,---,0.00,VWS V14.00,2013-05-28 15:35:00,
2013-05-28 05:40:00,75.1,69.6,30.04,SE,128,4.0,12.0,83,0.00,,---,0.00,VWS V14.00,2013-05-28 15:40:00,
2013-05-28 05:45:00,75.1,69.6,30.04,SE,128,5.0,13.0,83,0.00,,---,0.00,VWS V14.00,2013-05-28 15:45:00,
2013-05-28 05:50:00,75.1,69.6,30.04,ESE,122,5.0,13.0,83,0.00,,---,0.00,VWS V14.00,2013-05-28 15:50:00,
2013-05-28 05:55:00,75.1,69.6,30.04,East,85,5.0,14.0,83,0.00,,---,0.00,VWS V14.00,2013-05-28 15:55:00,
2013-05-28 06:00:00,75.0,69.5,30.05,East,84,4.0,17.0,83,0.00,,---,0.00,VWS V14.00,2013-05-28 16:00:00,
2013-05-28 06:05:00,75.0,69.1,30.05,SE,135,2.0,7.0,82,0.00,,---,0.00,VWS V14.00,2013-05-28 16:05:00,
2013-05-28 06:10:00,75.1,69.2,30.05,SE,138,4.0,12.0,82,0.00,,---,0.00,VWS V14.00,2013-05-28 16:10:00,
2013-05-28 06:15:00,75.2,69.3,30.05,SE,142,4.0,12.0,82,0.00,,---,0.00,VWS V14.00,2013-05-28 16:15:00,
2013-05-28 06:20:00,75.4,69.5,30.05,SE,128,4.0,14.0,82,0.00,,---,0.00,VWS V14.00,2013-05-28 16:20:00,
2013-05-28 06:25:00,75.5,69.6,30.05,ENE,78,2.0,14.0,82,0.00,,---,0.00,VWS V14.00,2013-05-28 16:25:00,
2013-05-28 06:30:00,75.5,69.3,30.05,SE,132,2.0,14.0,81,0.00,,---,0.00,VWS V14.00,2013-05-28 16:30:00,
2013-05-28 06:35:00,75.6,69.4,30.06,SSE,151,9.0,9.0,81,0.00,,---,0.00,VWS V14.00,2013-05-28 16:35:00,
2013-05-28 06:40:00,75.8,69.6,30.06,ENE,69,2.0,16.0,81,0.00,,---,0.00,VWS V14.00,2013-05-28 16:40:00,
2013-05-28 06:45:00,75.9,69.7,30.06,ESE,122,1.0,16.0,81,0.00,,---,0.00,VWS V14.00,2013-05-28 16:45:00,
2013-05-28 06:50:00,76.0,69.8,30.06,ESE,117,2.0,16.0,81,0.00,,---,0.00,VWS V14.00,2013-05-28 16:50:00,
2013-05-28 06:55:00,76.2,69.6,30.06,ESE,118,6.0,16.0,80,0.00,,---,0.00,VWS V14.00,2013-05-28 16:55:00,
2013-05-28 07:00:00,76.4,69.8,30.06,SE,126,2.0,16.0,80,0.00,,---,0.00,VWS V14.00,2013-05-28 17:00:00,
2013-05-28 07:05:00,76.5,69.5,30.06,ESE,120,6.0,11.0,79,0.00,,---,0.00,VWS V14.00,2013-05-28 17:05:00,
2013-05-28 07:10:00,76.6,69.6,30.06,East,92,5.0,11.0,79,0.00,,---,0.00,VWS V14.00,2013-05-28 17:10:00,
2013-05-28 07:15:00,76.7,70.1,30.07,ESE,112,4.0,11.0,80,0.00,,---,0.00,VWS V14.00,2013-05-28 17:15:00,
2013-05-28 07:20:00,76.9,70.3,30.06,East,82,6.0,11.0,80,0.00,,---,0.00,VWS V14.00,2013-05-28 17:20:00,
2013-05-28 07:25:00,77.0,70.4,30.06,East,81,2.0,12.0,80,0.00,,---,0.00,VWS V14.00,2013-05-28 17:25:00,
2013-05-28 07:30:00,77.0,70.0,30.07,East,89,3.0,12.0,79,0.00,,---,0.00,VWS V14.00,2013-05-28 17:30:00,
2013-05-28 07:35:00,77.1,70.1,30.07,ESE,119,5.0,8.0,79,0.00,,---,0.00,VWS V14.00,2013-05-28 17:35:00,
2013-05-28 07:40:00,77.4,70.4,30.07,ESE,116,6.0,11.0,79,0.00,,---,0.00,VWS V14.00,2013-05-28 17:40:00,
2013-05-28 07:45:00,77.5,70.1,30.07,ESE,110,4.0,14.0,78,0.00,,---,0.00,VWS V14.00,2013-05-28 17:45:00,
2013-05-28 07:50:00,77.7,70.3,30.07,SE,124,2.0,14.0,78,0.00,,---,0.00,VWS V14.00,2013-05-28 17:50:00,
2013-05-28 07:55:00,77.8,70.0,30.07,East,91,4.0,17.0,77,0.00,,---,0.00,VWS V14.00,2013-05-28 17:55:00,
2013-05-28 08:00:00,77.6,70.2,30.07,SE,140,4.0,18.0,78,0.00,,---,0.00,VWS V14.00,2013-05-28 18:00:00,
2013-05-28 08:05:00,77.9,70.5,30.07,ENE,69,4.0,12.0,78,0.00,,---,0.00,VWS V14.00,2013-05-28 18:05:00,
2013-05-28 08:10:00,78.0,70.2,30.07,East,90,2.0,14.0,77,0.00,,---,0.00,VWS V14.00,2013-05-28 18:10:00,
2013-05-28 08:15:00,78.3,70.9,30.07,SSE,148,6.0,14.0,78,0.00,,---,0.00,VWS V14.00,2013-05-28 18:15:00,
2013-05-28 08:20:00,78.2,70.4,30.07,SSE,147,6.0,18.0,77,0.00,,---,0.00,VWS V14.00,2013-05-28 18:20:00,
2013-05-28 08:25:00,78.0,69.8,30.07,SE,134,7.0,19.0,76,0.00,,---,0.00,VWS V14.00,2013-05-28 18:25:00,
2013-05-28 08:30:00,77.9,70.5,30.07,SSE,160,11.0,19.0,78,0.00,,---,0.00,VWS V14.00,2013-05-28 18:30:00,
2013-05-28 08:35:00,77.9,70.1,30.07,ENE,67,7.0,18.0,77,0.00,,---,0.00,VWS V14.00,2013-05-28 18:35:00,
2013-05-28 08:40:00,78.1,69.9,30.07,East,86,2.0,18.0,76,0.00,,---,0.00,VWS V14.00,2013-05-28 18:40:00,
2013-05-28 08:45:00,78.5,70.3,30.07,East,85,4.0,18.0,76,0.00,,---,0.00,VWS V14.00,2013-05-28 18:45:00,
2013-05-28 08:50:00,78.9,70.7,30.07,East,80,3.0,18.0,76,0.00,,---,0.00,VWS V14.00,2013-05-28 18:50:00,
2013-05-28 08:55:00,79.2,70.6,30.08,SE,129,7.0,18.0,75,0.00,,---,0.00,VWS V14.00,2013-05-28 18:55:00,
2013-05-28 09:00:00,79.2,70.6,30.08,ENE,71,2.0,18.0,75,0.00,,---,0.00,VWS V14.00,2013-05-28 19:00:00,
2013-05-28 09:05:00,79.1,70.1,30.08,SSE,159,6.0,10.0,74,0.00,,---,0.00,VWS V14.00,2013-05-28 19:05:00,
2013-05-28 09:10:00,78.9,70.3,30.08,SE,130,7.0,17.0,75,0.00,,---,0.00,VWS V14.00,2013-05-28 19:10:00,
2013-05-28 09:15:00,78.9,70.7,30.08,SSE,149,9.0,17.0,76,0.00,,---,0.00,VWS V14.00,2013-05-28 19:15:00,
2013-05-28 09:20:00,78.9,71.1,30.08,East,101,2.0,17.0,77,0.00,,---,0.00,VWS V14.00,2013-05-28 19:20:00,
2013-05-28 09:25:00,79.3,71.5,30.08,ENE,57,0.0,17.0,77,0.00,,---,0.00,VWS V14.00,2013-05-28 19:25:00,
2013-05-28 09:30:00,79.2,71.4,30.08,SE,146,2.0,17.0,77,0.00,,---,0.00,VWS V14.00,2013-05-28 19:30:00,
2013-05-28 09:35:00,79.2,71.4,30.08,ESE,110,5.0,7.0,77,0.00,,---,0.00,VWS V14.00,2013-05-28 19:35:00,
2013-05-28 09:40:00,78.9,70.7,30.08,SE,146,21.0,21.0,76,0.00,,---,0.00,VWS V14.00,2013-05-28 19:40:00,
2013-05-28 09:45:00,79.2,71.8,30.08,ESE,116,5.0,21.0,78,0.00,,---,0.00,VWS V14.00,2013-05-28 19:45:00,
2013-05-28 09:50:00,79.5,70.9,30.08,SE,126,7.0,21.0,75,0.00,,---,0.00,VWS V14.00,2013-05-28 19:50:00,
2013-05-28 09:55:00,79.4,70.4,30.08,East,84,8.0,21.0,74,0.00,,---,0.00,VWS V14.00,2013-05-28 19:55:00,
2013-05-28 10:00:00,79.1,70.5,30.08,SE,141,9.0,21.0,75,0.00,,---,0.00,VWS V14.00,2013-05-28 20:00:00,
2013-05-28 10:05:00,79.2,71.0,30.08,ESE,107,2.0,12.0,76,0.00,,---,0.00,VWS V14.00,2013-05-28 20:05:00,
2013-05-28 10:10:00,79.4,71.6,30.07,SE,128,2.0,14.0,77,0.00,,---,0.00,VWS V14.00,2013-05-28 20:10:00,
2013-05-28 10:15:00,79.6,71.4,30.07,SE,124,5.0,15.0,76,0.00,,---,0.00,VWS V14.00,2013-05-28 20:15:00,
2013-05-28 10:20:00,79.3,70.7,30.07,SE,134,5.0,19.0,75,0.00,,---,0.00,VWS V14.00,2013-05-28 20:20:00,
2013-05-28 10:25:00,79.2,71.0,30.07,SE,137,6.0,19.0,76,0.00,,---,0.00,VWS V14.00,2013-05-28 20:25:00,
2013-05-28 10:30:00,79.3,71.1,30.07,SE,138,6.0,19.0,76,0.00,,---,0.00,VWS V14.00,2013-05-28 20:30:00,
2013-05-28 10:35:00,79.6,71.0,30.08,ESE,120,12.0,17.0,75,0.00,,---,0.00,VWS V14.00,2013-05-28 20:35:00,
2013-05-28 10:40:00,79.7,71.5,30.08,SE,126,7.0,17.0,76,0.00,,---,0.00,VWS V14.00,2013-05-28 20:40:00,
2013-05-28 10:45:00,80.1,70.7,30.08,East,100,6.0,23.0,73,0.00,,---,0.00,VWS V14.00,2013-05-28 20:45:00,
2013-05-28 10:50:00,80.2,71.2,30.08,ENE,63,6.0,23.0,74,0.00,,---,0.00,VWS V14.00,2013-05-28 20:50:00,
2013-05-28 10:55:00,80.5,71.1,30.08,SE,130,6.0,23.0,73,0.00,,---,0.00,VWS V14.00,2013-05-28 20:55:00,
2013-05-28 11:00:00,80.7,71.7,30.08,SSE,148,7.0,23.0,74,0.00,,---,0.00,VWS V14.00,2013-05-28 21:00:00,
2013-05-28 11:05:00,80.5,71.5,30.08,East,83,4.0,14.0,74,0.00,,---,0.00,VWS V14.00,2013-05-28 21:05:00,
2013-05-28 11:10:00,80.8,71.3,30.08,ENE,69,5.0,14.0,73,0.00,,---,0.00,VWS V14.00,2013-05-28 21:10:00,
2013-05-28 11:15:00,80.9,71.4,30.08,ENE,65,3.0,17.0,73,0.00,,---,0.00,VWS V14.00,2013-05-28 21:15:00,
2013-05-28 11:20:00,80.5,71.5,30.08,SE,134,6.0,17.0,74,0.00,,---,0.00,VWS V14.00,2013-05-28 21:20:00,
2013-05-28 11:25:00,80.3,72.1,30.08,ENE,71,4.0,17.0,76,0.00,,---,0.00,VWS V14.00,2013-05-28 21:25:00,
2013-05-28 11:30:00,80.6,72.3,30.08,ENE,67,4.0,17.0,76,0.00,,---,0.00,VWS V14.00,2013-05-28 21:30:00,
2013-05-28 11:35:00,80.3,71.3,30.08,SE,136,5.0,18.0,74,0.00,,---,0.00,VWS V14.00,2013-05-28 21:35:00,
2013-05-28 11:40:00,80.4,71.8,30.08,SE,132,9.0,18.0,75,0.00,,---,0.00,VWS V14.00,2013-05-28 21:40:00,
2013-05-28 11:45:00,80.3,71.3,30.08,ENE,64,8.0,18.0,74,0.00,,---,0.00,VWS V14.00,2013-05-28 21:45:00,
2013-05-28 11:50:00,80.2,70.8,30.08,East,87,4.0,18.0,73,0.00,,---,0.00,VWS V14.00,2013-05-28 21:50:00,
2013-05-28 11:55:00,80.5,71.5,30.08,SE,134,6.0,18.0,74,0.00,,---,0.00,VWS V14.00,2013-05-28 21:55:00,
2013-05-28 12:00:00,80.6,71.2,30.08,ENE,62,4.0,18.0,73,0.00,,---,0.00,VWS V14.00,2013-05-28 22:00:00,
2013-05-28 12:05:00,80.8,71.3,30.08,SE,136,8.0,8.0,73,0.00,,---,0.00,VWS V14.00,2013-05-28 22:05:00,
2013-05-28 12:10:00,81.0,71.5,30.08,SE,135,6.0,12.0,73,0.00,,---,0.00,VWS V14.00,2013-05-28 22:10:00,
2013-05-28 12:15:00,80.7,70.8,30.08,SE,130,5.0,15.0,72,0.00,,---,0.00,VWS V14.00,2013-05-28 22:15:00,
2013-05-28 12:20:00,80.5,70.7,30.08,SE,146,12.0,15.0,72,0.00,,---,0.00,VWS V14.00,2013-05-28 22:20:00,
2013-05-28 12:25:00,80.2,70.8,30.08,ESE,116,11.0,15.0,73,0.00,,---,0.00,VWS V14.00,2013-05-28 22:25:00,
2013-05-28 12:30:00,80.0,71.0,30.08,SSE,152,1.0,15.0,74,0.00,,---,0.00,VWS V14.00,2013-05-28 22:30:00,
2013-05-28 12:35:00,80.5,71.1,30.08,SE,142,9.0,13.0,73,0.00,,---,0.00,VWS V14.00,2013-05-28 22:35:00,
2013-05-28 12:40:00,80.7,71.2,30.08,ESE,109,5.0,13.0,73,0.00,,---,0.00,VWS V14.00,2013-05-28 22:40:00,
2013-05-28 12:45:00,80.6,71.6,30.07,SSE,150,5.0,13.0,74,0.00,,---,0.00,VWS V14.00,2013-05-28 22:45:00,
2013-05-28 12:50:00,80.7,71.2,30.07,ESE,110,4.0,13.0,73,0.00,,---,0.00,VWS V14.00,2013-05-28 22:50:00,
2013-05-28 12:55:00,80.4,71.4,30.07,ESE,107,7.0,16.0,74,0.00,,---,0.00,VWS V14.00,2013-05-28 22:55:00,
2013-05-28 13:00:00,80.4,71.4,30.07,SE,138,6.0,16.0,74,0.00,,---,0.00,VWS V14.00,2013-05-28 23:00:00,
2013-05-28 13:05:00,80.0,70.6,30.07,SE,134,4.0,15.0,73,0.00,,---,0.00,VWS V14.00,2013-05-28 23:05:00,
2013-05-28 13:10:00,80.1,71.1,30.07,SSE,157,9.0,15.0,74,0.00,,---,0.00,VWS V14.00,2013-05-28 23:10:00,
2013-05-28 13:14:00,80.1,70.7,30.07,SSE,155,8.0,15.0,73,0.00,,---,0.00,VWS V14.00,2013-05-28 23:14:00,
2013-05-28 13:19:00,80.1,71.5,30.07,ESE,121,6.0,15.0,75,0.00,,---,0.00,VWS V14.00,2013-05-28 23:19:00,
2013-05-28 13:24:00,80.6,71.6,30.07,SE,133,5.0,15.0,74,0.00,,---,0.00,VWS V14.00,2013-05-28 23:24:00,
2013-05-28 13:29:00,80.8,71.7,30.06,SSE,149,1.0,15.0,74,0.00,,---,0.00,VWS V14.00,2013-05-28 23:29:00,
2013-05-28 13:34:00,80.6,71.6,30.06,ENE,74,6.0,10.0,74,0.00,,---,0.00,VWS V14.00,2013-05-28 23:34:00,
2013-05-28 13:39:00,80.6,71.6,30.06,ESE,119,6.0,11.0,74,0.00,,---,0.00,VWS V14.00,2013-05-28 23:39:00,
2013-05-28 13:44:00,80.3,71.7,30.05,SE,134,6.0,13.0,75,0.00,,---,0.00,VWS V14.00,2013-05-28 23:44:00,
2013-05-28 13:49:00,80.3,72.1,30.06,SE,127,7.0,13.0,76,0.00,,---,0.00,VWS V14.00,2013-05-28 23:49:00,
2013-05-28 13:54:00,80.5,71.5,30.06,SE,143,8.0,13.0,74,0.00,,---,0.00,VWS V14.00,2013-05-28 23:54:00,
2013-05-28 13:59:00,80.2,71.6,30.06,SE,140,2.0,13.0,75,0.00,,---,0.00,VWS V14.00,2013-05-28 23:59:00,
2013-05-28 14:04:00,79.9,71.3,30.06,East,98,6.0,11.0,75,0.00,,---,0.00,VWS V14.00,2013-05-29 00:04:00,
2013-05-28 14:09:00,79.6,71.0,30.06,ENE,69,2.0,12.0,75,0.00,,---,0.00,VWS V14.00,2013-05-29 00:09:00,
2013-05-28 14:14:00,79.8,71.6,30.05,ESE,103,5.0,14.0,76,0.00,,---,0.00,VWS V14.00,2013-05-29 00:14:00,
2013-05-28 14:19:00,80.3,71.7,30.05,ENE,69,5.0,15.0,75,0.00,,---,0.00,VWS V14.00,2013-05-29 00:19:00,
2013-05-28 14:24:00,80.5,71.1,30.05,East,83,2.0,15.0,73,0.00,,---,0.00,VWS V14.00,2013-05-29 00:24:00,
2013-05-28 14:29:00,80.3,71.3,30.05,NE,50,4.0,17.0,74,0.00,,---,0.00,VWS V14.00,2013-05-29 00:29:00,
2013-05-28 14:34:00,80.3,70.9,30.05,ENE,76,4.0,12.0,73,0.00,,---,0.00,VWS V14.00,2013-05-29 00:34:00,
2013-05-28 14:39:00,80.3,70.9,30.05,ESE,108,2.0,12.0,73,0.00,,---,0.00,VWS V14.00,2013-05-29 00:39:00,
2013-05-28 14:44:00,80.4,71.4,30.05,ENE,71,6.0,15.0,74,0.00,,---,0.00,VWS V14.00,2013-05-29 00:44:00,
2013-05-28 14:49:00,80.3,71.3,30.05,ESE,119,2.0,15.0,74,0.00,,---,0.00,VWS V14.00,2013-05-29 00:49:00,
2013-05-28 14:54:00,80.6,71.6,30.05,SE,142,7.0,15.0,74,0.00,,---,0.00,VWS V14.00,2013-05-29 00:54:00,
2013-05-28 14:59:00,80.7,71.7,30.04,East,92,2.0,15.0,74,0.00,,---,0.00,VWS V14.00,2013-05-29 00:59:00,
2013-05-28 15:04:00,80.7,71.2,30.04,ESE,121,4.0,8.0,73,0.00,,---,0.00,VWS V14.00,2013-05-29 01:04:00,
2013-05-28 15:09:00,80.5,71.5,30.04,SE,134,7.0,13.0,74,0.00,,---,0.00,VWS V14.00,2013-05-29 01:09:00,
2013-05-28 15:14:00,80.2,71.2,30.04,SE,134,2.0,13.0,74,0.00,,---,0.00,VWS V14.00,2013-05-29 01:14:00,
2013-05-28 15:19:00,79.8,70.8,30.04,ENE,75,2.0,13.0,74,0.00,,---,0.00,VWS V14.00,2013-05-29 01:19:00,
2013-05-28 15:24:00,79.8,71.2,30.04,SSE,153,6.0,13.0,75,0.00,,---,0.00,VWS V14.00,2013-05-29 01:24:00,
2013-05-28 15:29:00,80.1,71.5,30.04,SSE,159,7.0,13.0,75,0.00,,---,0.00,VWS V14.00,2013-05-29 01:29:00,
2013-05-28 15:34:00,79.8,71.2,30.04,ESE,121,5.0,5.0,75,0.00,,---,0.00,VWS V14.00,2013-05-29 01:34:00,
2013-05-28 15:39:00,79.6,71.4,30.04,SSE,147,2.0,14.0,76,0.00,,---,0.00,VWS V14.00,2013-05-29 01:39:00,
2013-05-28 15:44:00,79.4,71.2,30.04,SE,143,2.0,14.0,76,0.00,,---,0.00,VWS V14.00,2013-05-29 01:44:00,
2013-05-28 15:49:00,79.6,71.4,30.04,SE,137,2.0,14.0,76,0.00,,---,0.00,VWS V14.00,2013-05-29 01:49:00,
2013-05-28 15:54:00,79.6,71.4,30.04,East,96,4.0,14.0,76,0.00,,---,0.00,VWS V14.00,2013-05-29 01:54:00,
2013-05-28 15:59:00,79.6,71.4,30.04,East,85,3.0,14.0,76,0.00,,---,0.00,VWS V14.00,2013-05-29 01:59:00,
2013-05-28 16:04:00,79.4,71.2,30.04,SE,145,10.0,10.0,76,0.00,,---,0.00,VWS V14.00,2013-05-29 02:04:00,
2013-05-28 16:09:00,79.3,71.1,30.04,ESE,113,1.0,10.0,76,0.00,,---,0.00,VWS V14.00,2013-05-29 02:09:00,
2013-05-28 16:14:00,79.2,71.4,30.04,East,89,2.0,10.0,77,0.00,,---,0.00,VWS V14.00,2013-05-29 02:14:00,
2013-05-28 16:19:00,79.1,71.7,30.04,East,89,0.0,10.0,78,0.00,,---,0.00,VWS V14.00,2013-05-29 02:19:00,
2013-05-28 16:24:00,78.9,71.8,30.04,East,90,1.0,10.0,79,0.00,,---,0.00,VWS V14.00,2013-05-29 02:24:00,
2013-05-28 16:29:00,78.5,71.1,30.04,East,90,0.0,10.0,78,0.00,,---,0.00,VWS V14.00,2013-05-29 02:29:00,
2013-05-28 16:34:00,78.2,71.2,30.04,SE,130,2.0,10.0,79,0.00,,---,0.00,VWS V14.00,2013-05-29 02:34:00,
2013-05-28 16:39:00,77.9,70.9,30.04,NE,41,3.0,10.0,79,0.00,,---,0.00,VWS V14.00,2013-05-29 02:39:00,
2013-05-28 16:44:00,77.6,70.6,30.03,ENE,71,0.0,10.0,79,0.00,,---,0.00,VWS V14.00,2013-05-29 02:44:00,
2013-05-28 16:49:00,77.6,70.6,30.03,ENE,71,1.0,10.0,79,0.00,,---,0.00,VWS V14.00,2013-05-29 02:49:00,
2013-05-28 16:54:00,77.7,71.0,30.04,East,87,2.0,10.0,80,0.00,,---,0.00,VWS V14.00,2013-05-29 02:54:00,
2013-05-28 16:59:00,77.8,71.1,30.04,ENE,61,3.0,10.0,80,0.00,,---,0.00,VWS V14.00,2013-05-29 02:59:00,
2013-05-28 17:04:00,77.5,71.2,30.04,ENE,78,3.0,5.0,81,0.00,,---,0.00,VWS V14.00,2013-05-29 03:04:00,
2013-05-28 17:09:00,77.2,70.9,30.04,NE,54,4.0,11.0,81,0.00,,---,0.00,VWS V14.00,2013-05-29 03:09:00,
2013-05-28 17:14:00,76.9,71.0,30.04,NE,51,0.0,11.0,82,0.00,,---,0.00,VWS V14.00,2013-05-29 03:14:00,
2013-05-28 17:19:00,76.8,70.9,30.04,NE,51,1.0,11.0,82,0.00,,---,0.00,VWS V14.00,2013-05-29 03:19:00,
2013-05-28 17:24:00,76.8,70.9,30.04,ENE,58,2.0,11.0,82,0.00,,---,0.00,VWS V14.00,2013-05-29 03:24:00,
2013-05-28 17:29:00,76.8,71.2,30.04,ENE,61,2.0,11.0,83,0.00,,---,0.00,VWS V14.00,2013-05-29 03:29:00,
2013-05-28 17:34:00,76.8,71.2,30.04,ENE,61,1.0,3.0,83,0.00,,---,0.00,VWS V14.00,2013-05-29 03:34:00,
2013-05-28 17:39:00,76.7,70.8,30.04,ENE,63,3.0,5.0,82,0.00,,---,0.00,VWS V14.00,2013-05-29 03:39:00,
2013-05-28 17:44:00,76.7,71.2,30.05,NE,51,1.0,7.0,83,0.00,,---,0.00,VWS V14.00,2013-05-29 03:44:00,
2013-05-28 17:49:00,76.7,71.2,30.04,NE,47,6.0,11.0,83,0.00,,---,0.00,VWS V14.00,2013-05-29 03:49:00,
2013-05-28 17:54:00,76.6,71.1,30.04,ESE,104,6.0,11.0,83,0.00,,---,0.00,VWS V14.00,2013-05-29 03:54:00,
2013-05-28 17:59:00,76.7,71.5,30.04,ENE,76,1.0,11.0,84,0.00,,---,0.00,VWS V14.00,2013-05-29 03:59:00,
2013-05-28 18:01:00,76.6,71.4,30.05,ENE,78,3.0,11.0,84,0.00,,---,0.00,VWS V14.00,2013-05-29 04:01:00,
2013-05-28 18:06:00,76.5,71.7,30.05,ESE,121,5.0,6.0,85,0.00,,---,0.00,VWS V14.00,2013-05-29 04:06:00,
2013-05-28 18:11:00,76.3,71.1,30.04,ESE,115,0.0,6.0,84,0.00,,---,0.00,VWS V14.00,2013-05-29 04:11:00,
2013-05-28 18:16:00,76.2,71.4,30.05,ESE,119,2.0,8.0,85,0.00,,---,0.00,VWS V14.00,2013-05-29 04:16:00,
2013-05-28 18:21:00,76.1,70.9,30.05,ENE,71,0.0,9.0,84,0.00,,---,0.00,VWS V14.00,2013-05-29 04:21:00,
2013-05-28 18:26:00,76.1,70.9,30.05,East,82,0.0,9.0,84,0.00,,---,0.00,VWS V14.00,2013-05-29 04:26:00,
2013-05-28 18:31:00,76.0,71.2,30.05,East,83,2.0,9.0,85,0.00,,---,0.00,VWS V14.00,2013-05-29 04:31:00,
2013-05-28 18:36:00,76.1,71.3,30.05,East,95,4.0,6.0,85,0.00,,---,0.00,VWS V14.00,2013-05-29 04:36:00,
2013-05-28 18:41:00,76.0,70.8,30.05,East,84,0.0,6.0,84,0.00,,---,0.00,VWS V14.00,2013-05-29 04:41:00,
2013-05-28 18:46:00,76.0,70.8,30.05,ENE,58,0.0,8.0,84,0.00,,---,0.00,VWS V14.00,2013-05-29 04:46:00,
2013-05-28 18:51:00,76.1,70.9,30.06,NE,51,3.0,8.0,84,0.00,,---,0.00,VWS V14.00,2013-05-29 04:51:00,
2013-05-28 18:56:00,76.1,70.9,30.06,ENE,57,2.0,8.0,84,0.00,,---,0.00,VWS V14.00,2013-05-29 04:56:00,
2013-05-28 19:01:00,76.1,70.9,30.06,NE,49,3.0,8.0,84,0.00,,---,0.00,VWS V14.00,2013-05-29 05:01:00,
2013-05-28 19:06:00,76.0,70.8,30.06,SE,124,0.0,7.0,84,0.00,,---,0.00,VWS V14.00,2013-05-29 05:06:00,
2013-05-28 19:11:00,76.0,70.8,30.06,ESE,123,0.0,7.0,84,0.00,,---,0.00,VWS V14.00,2013-05-29 05:11:00,
2013-05-28 19:16:00,76.0,70.8,30.06,SE,143,5.0,11.0,84,0.00,,---,0.00,VWS V14.00,2013-05-29 05:16:00,
2013-05-28 19:21:00,76.0,70.8,30.06,SE,142,1.0,11.0,84,0.00,,---,0.00,VWS V14.00,2013-05-29 05:21:00,
2013-05-28 19:26:00,76.1,70.9,30.06,SE,142,0.0,11.0,84,0.00,,---,0.00,VWS V14.00,2013-05-29 05:26:00,
2013-05-28 19:31:00,76.0,70.8,30.06,East,96,2.0,11.0,84,0.00,,---,0.00,VWS V14.00,2013-05-29 05:31:00,
2013-05-28 19:36:00,76.0,70.8,30.07,East,100,1.0,7.0,84,0.00,,---,0.00,VWS V14.00,2013-05-29 05:36:00,
2013-05-28 19:41:00,76.0,71.2,30.07,East,100,0.0,7.0,85,0.00,,---,0.00,VWS V14.00,2013-05-29 05:41:00,
2013-05-28 19:46:00,76.1,71.3,30.07,East,100,1.0,7.0,85,0.00,,---,0.00,VWS V14.00,2013-05-29 05:46:00,
2013-05-28 19:51:00,76.0,71.2,30.07,East,101,4.0,7.0,85,0.00,,---,0.00,VWS V14.00,2013-05-29 05:51:00,
2013-05-28 19:56:00,76.0,71.2,30.07,East,88,1.0,7.0,85,0.00,,---,0.00,VWS V14.00,2013-05-29 05:56:00,
2013-05-28 20:01:00,76.0,71.2,30.07,ENE,57,1.0,10.0,85,0.00,,---,0.00,VWS V14.00,2013-05-29 06:01:00,
2013-05-28 20:06:00,76.0,71.2,30.07,SE,127,2.0,4.0,85,0.00,,---,0.00,VWS V14.00,2013-05-29 06:06:00,
2013-05-28 20:11:00,76.1,71.3,30.07,SE,127,5.0,8.0,85,0.00,,---,0.00,VWS V14.00,2013-05-29 06:11:00,
2013-05-28 20:16:00,76.1,71.3,30.08,ESE,121,0.0,8.0,85,0.00,,---,0.00,VWS V14.00,2013-05-29 06:16:00,
2013-05-28 20:21:00,76.2,71.4,30.08,NNE,27,3.0,9.0,85,0.00,,---,0.00,VWS V14.00,2013-05-29 06:21:00,
2013-05-28 20:26:00,76.2,71.4,30.08,NE,46,2.0,9.0,85,0.00,,---,0.00,VWS V14.00,2013-05-29 06:26:00,
2013-05-28 20:31:00,76.2,71.4,30.08,NE,51,2.0,9.0,85,0.00,,---,0.00,VWS V14.00,2013-05-29 06:31:00,
2013-05-28 20:36:00,76.2,71.4,30.08,ENE,57,0.0,4.0,85,0.00,,---,0.00,VWS V14.00,2013-05-29 06:36:00,
2013-05-28 20:41:00,76.2,71.4,30.08,ENE,63,0.0,5.0,85,0.00,,---,0.00,VWS V14.00,2013-05-29 06:41:00,
2013-05-28 20:46:00,76.2,71.4,30.08,SE,136,2.0,9.0,85,0.00,,---,0.00,VWS V14.00,2013-05-29 06:46:00,
2013-05-28 20:51:00,76.2,71.4,30.08,ESE,111,2.0,14.0,85,0.00,,---,0.00,VWS V14.00,2013-05-29 06:51:00,
2013-05-28 20:56:00,76.2,71.4,30.08,East,99,0.0,14.0,85,0.00,,---,0.00,VWS V14.00,2013-05-29 06:56:00,
2013-05-28 21:01:00,76.1,71.3,30.08,ESE,115,1.0,14.0,85,0.00,,---,0.00,VWS V14.00,2013-05-29 07:01:00,
2013-05-28 21:06:00,76.0,71.2,30.08,East,85,2.0,8.0,85,0.00,,---,0.00,VWS V14.00,2013-05-29 07:06:00,
2013-05-28 21:11:00,76.0,71.2,30.08,East,86,3.0,8.0,85,0.00,,---,0.00,VWS V14.00,2013-05-29 07:11:00,
2013-05-28 21:16:00,75.9,71.1,30.08,ENE,59,6.0,8.0,85,0.00,,---,0.00,VWS V14.00,2013-05-29 07:16:00,
2013-05-28 21:21:00,76.0,71.2,30.08,NE,53,0.0,8.0,85,0.00,,---,0.00,VWS V14.00,2013-05-29 07:21:00,
2013-05-28 21:26:00,76.0,71.2,30.09,SE,133,2.0,9.0,85,0.00,,---,0.00,VWS V14.00,2013-05-29 07:26:00,
2013-05-28 21:31:00,76.1,71.3,30.09,ESE,116,2.0,9.0,85,0.00,,---,0.00,VWS V14.00,2013-05-29 07:31:00,
2013-05-28 21:36:00,76.2,71.4,30.09,East,82,3.0,9.0,85,0.00,,---,0.00,VWS V14.00,2013-05-29 07:36:00,
2013-05-28 21:41:00,76.3,71.5,30.09,SE,140,1.0,9.0,85,0.00,,---,0.00,VWS V14.00,2013-05-29 07:41:00,
2013-05-28 21:46:00,76.2,71.4,30.09,East,98,2.0,11.0,85,0.00,,---,0.00,VWS V14.00,2013-05-29 07:46:00,
2013-05-28 21:51:00,76.1,71.3,30.09,East,92,0.0,12.0,85,0.00,,---,0.00,VWS V14.00,2013-05-29 07:51:00,
2013-05-28 21:56:00,76.1,71.3,30.09,East,96,4.0,12.0,85,0.00,,---,0.00,VWS V14.00,2013-05-29 07:56:00,
2013-05-28 22:01:00,76.1,71.3,30.09,East,101,0.0,12.0,85,0.00,,---,0.00,VWS V14.00,2013-05-29 08:01:00,
2013-05-28 22:06:00,76.0,71.2,30.09,SE,139,2.0,12.0,85,0.00,,---,0.00,VWS V14.00,2013-05-29 08:06:00,
2013-05-28 22:11:00,76.0,71.2,30.09,SE,139,1.0,12.0,85,0.00,,---,0.00,VWS V14.00,2013-05-29 08:11:00,
2013-05-28 22:16:00,76.1,71.3,30.09,SE,128,4.0,12.0,85,0.00,,---,0.00,VWS V14.00,2013-05-29 08:16:00,
2013-05-28 22:21:00,76.1,71.3,30.09,SSE,150,5.0,12.0,85,0.00,,---,0.00,VWS V14.00,2013-05-29 08:21:00,
2013-05-28 22:26:00,76.1,71.3,30.09,ESE,123,4.0,12.0,85,0.00,,---,0.00,VWS V14.00,2013-05-29 08:26:00,
2013-05-28 22:31:00,76.1,70.9,30.09,SE,128,0.0,12.0,84,0.00,,---,0.00,VWS V14.00,2013-05-29 08:31:00,
2013-05-28 22:36:00,76.1,71.3,30.09,SSE,159,4.0,10.0,85,0.00,,---,0.00,VWS V14.00,2013-05-29 08:36:00,
2013-05-28 22:41:00,76.1,71.3,30.09,East,98,4.0,10.0,85,0.00,,---,0.00,VWS V14.00,2013-05-29 08:41:00,
2013-05-28 22:46:00,76.2,71.4,30.09,ENE,60,3.0,10.0,85,0.00,,---,0.00,VWS V14.00,2013-05-29 08:46:00,
2013-05-28 22:51:00,76.2,71.4,30.09,South,170,4.0,10.0,85,0.00,,---,0.00,VWS V14.00,2013-05-29 08:51:00,
2013-05-28 22:56:00,76.3,71.5,30.09,SE,130,2.0,10.0,85,0.00,,---,0.00,VWS V14.00,2013-05-29 08:56:00,
2013-05-28 23:01:00,76.2,71.4,30.09,East,90,1.0,10.0,85,0.00,,---,0.00,VWS V14.00,2013-05-29 09:01:00,
2013-05-28 23:06:00,76.2,71.4,30.09,ESE,108,4.0,10.0,85,0.00,,---,0.00,VWS V14.00,2013-05-29 09:06:00,
2013-05-28 23:11:00,76.2,71.0,30.09,SE,134,5.0,10.0,84,0.00,,---,0.00,VWS V14.00,2013-05-29 09:11:00,
2013-05-28 23:16:00,76.2,71.4,30.09,ESE,120,2.0,10.0,85,0.00,,---,0.00,VWS V14.00,2013-05-29 09:16:00,
2013-05-28 23:21:00,76.3,71.5,30.09,ENE,78,4.0,10.0,85,0.00,,---,0.00,VWS V14.00,2013-05-29 09:21:00,
2013-05-28 23:26:00,76.2,71.4,30.09,ESE,122,6.0,10.0,85,0.00,,---,0.00,VWS V14.00,2013-05-29 09:26:00,
2013-05-28 23:31:00,76.1,70.9,30.09,East,86,4.0,10.0,84,0.00,,---,0.00,VWS V14.00,2013-05-29 09:31:00,
2013-05-28 23:36:00,76.1,70.9,30.08,ENE,78,4.0,6.0,84,0.00,,---,0.00,VWS V14.00,2013-05-29 09:36:00,
2013-05-28 23:41:00,76.2,70.7,30.09,ENE,57,6.0,10.0,83,0.00,,---,0.00,VWS V14.00,2013-05-29 09:41:00,
2013-05-28 23:45:00,76.2,71.0,30.08,East,79,1.0,10.0,84,0.00,,---,0.00,VWS V14.00,2013-05-29 09:45:00,
2013-05-28 23:50:00,76.3,71.1,30.08,East,80,2.0,10.0,84,0.00,,---,0.00,VWS V14.00,2013-05-29 09:50:00,
2013-05-28 23:56:00,76.4,71.2,30.08,East,82,1.0,10.0,84,0.00,,---,0.00,VWS V14.00,2013-05-29 09:56:00,